Baileyton, AL

7:19 PM CDT on August 28, 2016 (GMT -0500)
Cullman

Weather History for K3A1 - May, 2013

Change the Weather History Date:

Thursday, May 16, 2013

  Actual Average (KHSV) Record (KHSV)
Temperature  
Mean Temperature 69 °F 70 °F  
Max Temperature 79 °F 81 °F 95 °F (1962)
Min Temperature 59 °F 59 °F 40 °F (1924)
Degree Days  
Heating Degree Days 0 1  
Month to date heating degree days 21  
Since 1 July heating degree days 2995  
Cooling Degree Days 4 6  
Month to date cooling degree days 73  
Year to date cooling degree days 145  
Growing Degree Days 19 (Base 50)    
Moisture  
Dew Point 57 °F    
Average Humidity 70    
Maximum Humidity 93    
Minimum Humidity 36    
Precipitation  
Precipitation 0.00 in 0.17 in 4.64 in (1980)
Month to date precipitation 2.78  
Year to date precipitation 22.04  
Snow  
Snow 0.00 in - - ()
Month to date snowfall  
Since 1 July snowfall  
Snow Depth -    
Sea Level Pressure  
Sea Level Pressure 30.06 in    
Wind  
Wind Speed 2 mph (SSW)    
Max Wind Speed 15 mph    
Max Gust Speed 18 mph    
Visibility 10 miles    
Events Rain    
T = Trace of Precipitation, MM = Missing Value Source: NWS Daily Summary

Daily Weather History Graph

Daily Weather History Graph

Search for Another Location

Airport or City:

Trip Planner

Search our weather history database for the weather conditions in past years. The results will help you decide how hot, cold, wet, or windy it might be!

Date:

Astronomy

May. 16, 2013 Rise Set
Actual Time 5:44 AM CDT 7:43 PM CDT
Civil Twilight 5:16 AM CDT 8:11 PM CDT
Nautical Twilight 4:42 AM CDT 8:45 PM CDT
Astronomical Twilight 4:06 AM CDT 9:21 PM CDT
Moon 11:12 AM CDT (5/16) 12:08 AM CDT (5/16)
Length of Visible Light 14h 54m
Length of Day
13h 58m
Waxing Crescent, 36% of the Moon is Illuminated
May 16
Waxing Crescent
May 17
First Quarter
May 24
Full
May 31
Last Quarter
Jun 8
New

Hourly Weather History & Observations

Time (CDT) Temp. Dew Point Humidity Pressure Visibility Wind Dir Wind Speed Gust Speed Precip Events Conditions
12:15 AM 61.2 °F 58.5 °F 91% 30.07 in 10.0 mi Calm Calm - N/A   Clear
12:35 AM 61.0 °F 58.3 °F 91% 30.07 in 10.0 mi Calm Calm - N/A   Clear
12:55 AM 61.0 °F 58.1 °F 90% 30.06 in 10.0 mi Calm Calm - N/A   Clear
1:15 AM 61.0 °F 58.5 °F 91% 30.06 in 10.0 mi Calm Calm - N/A   Clear
1:35 AM 60.8 °F 58.5 °F 92% 30.06 in 10.0 mi Calm Calm - N/A   Clear
1:55 AM 60.8 °F 58.5 °F 92% 30.06 in 10.0 mi Calm Calm - N/A   Clear
2:15 AM 60.8 °F 58.6 °F 93% 30.06 in 10.0 mi Calm Calm - N/A   Clear
2:35 AM 61.0 °F 58.6 °F 92% 30.05 in 10.0 mi Calm Calm - N/A   Clear
2:55 AM 60.3 °F 58.1 °F 93% 30.04 in 10.0 mi Calm Calm - N/A   Clear
3:15 AM 59.4 °F 57.2 °F 93% 30.05 in 10.0 mi Calm Calm - N/A   Clear
3:35 AM 60.1 °F 57.6 °F 91% 30.04 in 10.0 mi Calm Calm - N/A   Clear
3:55 AM 60.1 °F 57.4 °F 91% 30.04 in 10.0 mi Calm Calm - N/A   Clear
4:15 AM 59.2 °F 57.2 °F 93% 30.05 in 10.0 mi Calm Calm - N/A   Clear
4:35 AM 59.0 °F 57.0 °F 93% 30.05 in 10.0 mi Calm Calm - N/A   Clear
4:55 AM 59.4 °F 57.4 °F 93% 30.06 in 10.0 mi Calm Calm - N/A   Clear
5:15 AM 59.2 °F 57.2 °F 93% 30.05 in 10.0 mi Calm Calm - N/A   Clear
5:35 AM 61.3 °F 57.2 °F 86% 30.06 in 10.0 mi Calm Calm - N/A   Clear
5:55 AM 61.5 °F 57.2 °F 86% 30.07 in 10.0 mi Calm Calm - N/A   Clear
6:15 AM 61.0 °F 57.6 °F 88% 30.07 in 10.0 mi South 3.5 mph - N/A   Clear
6:35 AM 63.0 °F 58.3 °F 85% 30.07 in 10.0 mi South 3.5 mph - N/A   Clear
6:55 AM 63.5 °F 58.5 °F 84% 30.08 in 10.0 mi Calm Calm - N/A   Clear
7:15 AM 63.9 °F 59.2 °F 85% 30.09 in 10.0 mi South 4.6 mph - N/A   Clear
7:35 AM 64.8 °F 59.5 °F 83% 30.09 in 10.0 mi South 3.5 mph - N/A   Clear
7:55 AM 66.6 °F 60.4 °F 81% 30.10 in 10.0 mi SW 3.5 mph - N/A   Clear
8:15 AM 67.5 °F 60.3 °F 78% 30.10 in 10.0 mi SSW 4.6 mph - N/A   Clear
8:35 AM 69.1 °F 60.6 °F 74% 30.10 in 10.0 mi SW 4.6 mph - N/A   Clear
8:55 AM 71.1 °F 60.4 °F 69% 30.10 in 10.0 mi SW 6.9 mph - N/A   Clear
9:15 AM 71.4 °F 59.7 °F 66% 30.10 in 10.0 mi SW 4.6 mph - N/A   Clear
9:35 AM 72.7 °F 58.8 °F 62% 30.10 in 10.0 mi West 4.6 mph - N/A   Clear
9:55 AM 73.9 °F 58.1 °F 58% 30.10 in 10.0 mi SW 5.8 mph - N/A   Scattered Clouds
10:15 AM 73.4 °F 58.1 °F 59% 30.11 in 10.0 mi SW 5.8 mph - N/A   Scattered Clouds
10:35 AM 74.1 °F 58.3 °F 58% 30.10 in 10.0 mi South 5.8 mph - N/A   Clear
10:55 AM 73.9 °F 57.6 °F 56% 30.10 in 10.0 mi SSW 4.6 mph - N/A   Clear
11:15 AM 74.7 °F 57.2 °F 54% 30.10 in 10.0 mi South 5.8 mph - N/A   Clear
11:35 AM 75.6 °F 56.7 °F 52% 30.09 in 10.0 mi South 6.9 mph - N/A   Clear
11:55 AM 75.9 °F 56.7 °F 51% 30.08 in 10.0 mi SSW 8.1 mph - N/A   Clear
12:15 PM 76.5 °F 54.5 °F 46% 30.08 in 10.0 mi SW 3.5 mph - N/A   Clear
12:35 PM 76.8 °F 54.9 °F 46% 30.07 in 10.0 mi South 5.8 mph - N/A   Clear
12:55 PM 77.7 °F 56.5 °F 48% 30.06 in 10.0 mi South 9.2 mph - N/A   Clear
1:35 PM 78.6 °F 55.4 °F 45% 30.06 in 10.0 mi SSW 12.7 mph 17.3 mph N/A   Clear
1:55 PM 79.2 °F 52.7 °F 40% 30.05 in 10.0 mi SSE 10.4 mph - N/A   Clear
2:15 PM 79.5 °F 52.2 °F 38% 30.05 in 10.0 mi SSW 6.9 mph 10.4 mph N/A   Clear
2:35 PM 79.7 °F 51.4 °F 37% 30.05 in 10.0 mi South 9.2 mph - N/A   Clear
2:55 PM 79.7 °F 50.4 °F 36% 30.04 in 10.0 mi South 12.7 mph 17.3 mph N/A   Clear
3:15 PM 79.5 °F 51.4 °F 37% 30.04 in 10.0 mi South 10.4 mph - N/A   Clear
3:35 PM 79.0 °F 52.5 °F 40% 30.03 in 10.0 mi South 9.2 mph - N/A   Clear
4:15 PM 79.2 °F 50.4 °F 36% 30.02 in 10.0 mi South 15.0 mph 18.4 mph N/A   Clear
4:35 PM 77.5 °F 50.7 °F 39% 30.02 in 10.0 mi SW 10.4 mph - N/A   Clear
4:55 PM 76.6 °F 50.9 °F 40% 30.02 in 10.0 mi SSW 9.2 mph - N/A   Clear
5:15 PM 75.9 °F 51.3 °F 42% 30.02 in 10.0 mi South 6.9 mph - N/A   Clear
5:35 PM 75.0 °F 52.0 °F 44% 30.02 in 10.0 mi SSW 3.5 mph - N/A   Clear
5:55 PM 73.9 °F 53.1 °F 48% 30.01 in 10.0 mi Calm Calm - N/A   Clear
6:15 PM 72.3 °F 56.1 °F 57% 30.02 in 10.0 mi Calm Calm - N/A   Clear
6:35 PM 71.8 °F 56.5 °F 58% 30.01 in 10.0 mi Calm Calm - N/A Rain Light Rain
6:55 PM 71.2 °F 58.5 °F 64% 30.01 in 10.0 mi Calm Calm - N/A   Clear
7:15 PM 70.2 °F 60.6 °F 72% 30.02 in 10.0 mi Calm Calm - N/A   Clear
7:35 PM 70.0 °F 58.5 °F 67% 30.02 in 10.0 mi Calm Calm - N/A   Clear
7:55 PM 68.4 °F 58.6 °F 71% 30.03 in 10.0 mi Calm Calm - N/A   Clear
8:15 PM 66.7 °F 58.6 °F 75% 30.02 in 10.0 mi Calm Calm - N/A   Clear
8:35 PM 66.7 °F 57.7 °F 73% 30.03 in 10.0 mi Calm Calm - N/A   Clear
8:55 PM 66.0 °F 56.7 °F 72% 30.04 in 10.0 mi Calm Calm - N/A   Clear
9:15 PM 63.9 °F 57.0 °F 78% 30.04 in 10.0 mi Calm Calm - N/A   Clear
9:35 PM 64.8 °F 56.1 °F 74% 30.04 in 10.0 mi Calm Calm - N/A   Clear
9:55 PM 64.0 °F 55.8 °F 74% 30.04 in 10.0 mi Calm Calm - N/A   Clear
10:15 PM 64.6 °F 56.3 °F 74% 30.04 in 10.0 mi Calm Calm - N/A   Clear
10:35 PM 63.3 °F 56.7 °F 79% 30.04 in 10.0 mi Calm Calm - N/A   Clear
10:55 PM 61.3 °F 57.2 °F 86% 30.04 in 10.0 mi Calm Calm - N/A   Clear
11:15 PM 62.1 °F 57.7 °F 86% 30.03 in 10.0 mi Calm Calm - N/A   Clear
11:35 PM 61.9 °F 58.1 °F 87% 30.04 in 10.0 mi Calm Calm - N/A   Clear
11:55 PM 63.3 °F 59.0 °F 86% 30.03 in 10.0 mi SE 3.5 mph - N/A   Clear